Regional Weather Roundup
Issued by NWS

Home | Current Version | Previous Version | Text Only | Print | Product List | Glossary On
Versions: 1 2 3 4 5 6 7 8 9 10 11 12 13 14 15 16 17 18 19 20 21 22 23 24 25 26 27
000
ASUS45 KCYS 250810
RWRWY

WYOMING REGIONAL WEATHER ROUNDUP
NATIONAL WEATHER SERVICE CHEYENNE WY
200 AM MDT WED APR 25 2018

NOTE:  "FAIR" INDICATES FEW OR NO CLOUDS BELOW 12,000 FEET
WITH NO SIGNIFICANT WEATHER AND/OR OBSTRUCTIONS TO VISIBILITY.

WYZ001-250900-
YELLOWSTONE NATIONAL PARK

CITY           SKY/WX    TMP DP  RH WIND       PRES   REMARKS
LK YELLOWSTONE   N/A     17  13  84 CALM      30.42S
W YELLOWSTONE  NOT AVBL

$$
WYZ002>013-054>058-071-098>099-250900-
NORTHERN WYOMING

CITY           SKY/WX    TMP DP  RH WIND       PRES   REMARKS
JACKSON        FAIR      25  19  78 N6        30.39R WCI  18
CODY           FAIR      36  22  56 SW12      30.31F WCI  28
GREYBULL       FAIR      36  31  82 SE6       30.33F WCI  31
WORLAND        FAIR      33  27  78 VRB3      30.33F
SHERIDAN       FAIR      26  21  81 CALM      30.26F
BUFFALO        FAIR      31  15  52 S5        30.28F WCI  26
GILLETTE       FAIR      31  24  75 S10       30.31F WCI  22
HULETT         FAIR      30  27  86 SW5       30.33F WCI  25
NEWCASTLE      FAIR      28  21  74 CALM      30.37F

$$
WYZ014>020-022>026-101>103-250900-
CENTRAL WYOMING

CITY           SKY/WX    TMP DP  RH WIND       PRES   REMARKS
BIG PINEY      FAIR      22  16  78 E8        30.42S WCI  12
PINEDALE       FAIR      21  19  93 CALM      30.43F
DUBOIS         FAIR      27  21  80 W12       30.37F WCI  16
LANDER         FAIR      33  16  49 W10       30.35F WCI  25
RIVERTON       FAIR      28  20  71 W5        30.37F WCI  23
CASPER         FAIR      25  22  88 W10       30.36F WCI  15
DOUGLAS        FAIR      20  19  96 CALM      30.38F

$$
WYZ021-027>030-104>119-250900-
SOUTHERN WYOMING

CITY           SKY/WX    TMP DP  RH WIND       PRES   REMARKS
EVANSTON       FAIR      34  20  56 NE3       30.36F
KEMMERER       FAIR      32  19  59 E8        30.40F WCI  25
FORT BRIDGER   FAIR      31  19  62 SE7       30.40F WCI  24
ROCK SPRINGS   FAIR      29  17  61 SE10      30.41S WCI  20
DIXON          FAIR      24  18  76 CALM      30.43F
RAWLINS        FAIR      20  14  77 CALM      30.40F
SARATOGA       FAIR      18  14  86 S3        30.41F
LARAMIE        FAIR      20  16  84 W5        30.37F WCI  13
CHEYENNE       FAIR      27  24  89 W7        30.38F WCI  19
TORRINGTON     FAIR      29  27  92 CALM      30.38F
PINE BLUFFS    FAIR      25  23  93 MISG      30.40F

$$




USA.gov is the U.S. government's official web portal to all federal, state and local government web resources and services.